Time,TemperatureF,DewpointF,PressureIn,WindDirection,WindDirectionDegrees,WindSpeedMPH,WindSpeedGustMPH,Humidity,HourlyPrecipIn,Conditions,Clouds,dailyrainin,SolarRadiationWatts/m^2,SoftwareType,DateUTC
2013-01-23 00:09:00,0.5,-3.7,30.21,WSW,253,3.0,5.0,82,0.00, +SN, +SN,0.00,0.0,WeatherDisplay:10.37,2013-01-23 05:09:00,
2013-01-23 00:18:00,0.7,-3.3,30.21,WSW,254,3.0,7.0,83,0.00, +SN, +SN,0.00,0.0,WeatherDisplay:10.37,2013-01-23 05:18:00,
2013-01-23 00:23:00,0.7,-3.3,30.21,WSW,254,3.0,5.0,83,0.00, +SN, +SN,0.00,0.0,WeatherDisplay:10.37,2013-01-23 05:23:00,
2013-01-23 00:33:00,0.5,-3.4,30.20,WSW,254,3.0,5.0,83,0.00, +SN, +SN,0.00,0.0,WeatherDisplay:10.37,2013-01-23 05:33:00,
2013-01-23 00:38:00,0.5,-3.4,30.20,WSW,254,0.0,1.0,83,0.00, +SN, +SN,0.00,0.0,WeatherDisplay:10.37,2013-01-23 05:38:00,
2013-01-23 00:43:00,0.5,-3.4,30.20,WSW,254,1.0,4.0,83,0.00, +SN, +SN,0.00,0.0,WeatherDisplay:10.37,2013-01-23 05:43:00,
2013-01-23 00:48:00,0.5,-3.4,30.20,WSW,254,2.0,4.0,83,0.00, +SN, +SN,0.00,0.0,WeatherDisplay:10.37,2013-01-23 05:48:00,
2013-01-23 00:53:00,0.5,-3.4,30.20,WSW,254,1.0,3.0,83,0.00, +SN, +SN,0.00,0.0,WeatherDisplay:10.37,2013-01-23 05:53:00,
2013-01-23 00:58:00,0.3,-3.6,30.20,WSW,254,1.0,3.0,83,0.00, +SN, +SN,0.00,0.0,WeatherDisplay:10.37,2013-01-23 05:58:00,
2013-01-23 01:03:00,0.3,-3.6,30.20,WSW,254,1.0,2.0,83,0.00, +SN, +SN,0.00,0.0,WeatherDisplay:10.37,2013-01-23 06:03:00,
2013-01-23 01:08:00,0.3,-3.6,30.20,WSW,254,2.0,4.0,83,0.00, +SN, +SN,0.00,0.0,WeatherDisplay:10.37,2013-01-23 06:08:00,
2013-01-23 01:13:00,0.1,-3.8,30.20,WSW,254,2.0,3.0,83,0.00, +SN, +SN,0.00,0.0,WeatherDisplay:10.37,2013-01-23 06:13:00,
2013-01-23 01:18:00,0.1,-3.8,30.19,WSW,254,1.0,4.0,83,0.00, +SN, +SN,0.00,0.0,WeatherDisplay:10.37,2013-01-23 06:18:00,
2013-01-23 01:23:00,0.0,-3.9,30.20,WSW,254,2.0,3.0,83,0.00, +SN, +SN,0.00,0.0,WeatherDisplay:10.37,2013-01-23 06:23:00,
2013-01-23 01:28:00,0.0,-3.9,30.20,WSW,254,2.0,6.0,83,0.00, +SN, +SN,0.00,0.0,WeatherDisplay:10.37,2013-01-23 06:28:00,
2013-01-23 01:33:00,0.0,-3.7,30.20,WSW,253,2.0,6.0,84,0.00, +SN, +SN,0.00,0.0,WeatherDisplay:10.37,2013-01-23 06:33:00,
2013-01-23 01:38:00,0.0,-3.7,30.20,West,260,5.0,6.0,84,0.00, +SN, +SN,0.00,0.0,WeatherDisplay:10.37,2013-01-23 06:38:00,
2013-01-23 01:43:00,0.0,-3.7,30.20,West,274,3.0,6.0,84,0.00, +SN, +SN,0.00,0.0,WeatherDisplay:10.37,2013-01-23 06:43:00,
2013-01-23 01:48:00,0.0,-3.7,30.20,WNW,284,3.0,6.0,84,0.00, +SN, +SN,0.00,0.0,WeatherDisplay:10.37,2013-01-23 06:48:00,
2013-01-23 01:53:00,0.0,-3.9,30.20,West,279,3.0,5.0,83,0.00, +SN, +SN,0.00,0.0,WeatherDisplay:10.37,2013-01-23 06:53:00,
2013-01-23 01:58:00,0.0,-3.9,30.20,West,275,3.0,6.0,83,0.00, +SN, +SN,0.00,0.0,WeatherDisplay:10.37,2013-01-23 06:58:00,
2013-01-23 02:03:00,-0.2,-4.1,30.21,West,273,2.0,5.0,83,0.00, +SN, +SN,0.00,0.0,WeatherDisplay:10.37,2013-01-23 07:03:00,
2013-01-23 02:08:00,-0.2,-4.1,30.20,West,267,3.0,9.0,83,0.00, +SN, +SN,0.00,0.0,WeatherDisplay:10.37,2013-01-23 07:08:00,
2013-01-23 02:18:00,0.0,-3.9,30.21,WSW,252,5.0,6.0,83,0.00, +SN, +SN,0.00,0.0,WeatherDisplay:10.37,2013-01-23 07:18:00,
2013-01-23 02:23:00,0.0,-3.9,30.21,WSW,252,3.0,4.0,83,0.00, +SN, +SN,0.00,0.0,WeatherDisplay:10.37,2013-01-23 07:23:00,
2013-01-23 02:28:00,0.0,-3.9,30.22,WSW,253,2.0,7.0,83,0.00, +SN, +SN,0.00,0.0,WeatherDisplay:10.37,2013-01-23 07:28:00,
2013-01-23 02:33:00,0.0,-3.9,30.22,WSW,253,3.0,6.0,83,0.00, +SN, +SN,0.00,0.0,WeatherDisplay:10.37,2013-01-23 07:33:00,
2013-01-23 02:38:00,0.0,-3.9,30.22,WSW,253,3.0,5.0,83,0.00, +SN, +SN,0.00,0.0,WeatherDisplay:10.37,2013-01-23 07:38:00,
2013-01-23 02:48:00,-0.2,-4.1,30.22,WSW,253,2.0,6.0,83,0.00, +SN, +SN,0.00,0.0,WeatherDisplay:10.37,2013-01-23 07:48:00,
2013-01-23 02:58:00,-0.2,-4.1,30.22,WSW,252,3.0,6.0,83,0.00, +SN, +SN,0.00,0.0,WeatherDisplay:10.37,2013-01-23 07:58:00,
2013-01-23 03:03:00,-0.2,-4.1,30.22,WSW,254,5.0,7.0,83,0.00, +SN, +SN,0.00,0.0,WeatherDisplay:10.37,2013-01-23 08:03:00,
2013-01-23 03:08:00,-0.2,-4.1,30.22,WSW,256,3.0,7.0,83,0.00, +SN, +SN,0.00,0.0,WeatherDisplay:10.37,2013-01-23 08:08:00,
2013-01-23 03:13:00,-0.2,-4.1,30.21,WSW,253,2.0,6.0,83,0.00, +SN, +SN,0.00,0.0,WeatherDisplay:10.37,2013-01-23 08:13:00,
2013-01-23 03:18:00,-0.2,-4.1,30.22,WSW,255,3.0,10.0,83,0.00, +SN, +SN,0.00,0.0,WeatherDisplay:10.37,2013-01-23 08:18:00,
2013-01-23 03:23:00,-0.2,-4.4,30.22,WSW,254,3.0,6.0,82,0.00, +SN, +SN,0.00,0.0,WeatherDisplay:10.37,2013-01-23 08:23:00,
2013-01-23 03:28:00,-0.2,-4.4,30.22,WSW,256,3.0,6.0,82,0.00, +SN, +SN,0.00,0.0,WeatherDisplay:10.37,2013-01-23 08:28:00,
2013-01-23 03:33:00,-0.2,-4.4,30.21,WSW,256,2.0,4.0,82,0.00, +SN, +SN,0.00,0.0,WeatherDisplay:10.37,2013-01-23 08:33:00,
2013-01-23 03:38:00,-0.4,-4.6,30.22,WSW,257,2.0,4.0,82,0.00, +SN, +SN,0.00,0.0,WeatherDisplay:10.37,2013-01-23 08:38:00,
2013-01-23 03:43:00,-0.4,-4.6,30.22,WSW,257,2.0,7.0,82,0.00, +SN, +SN,0.00,0.0,WeatherDisplay:10.37,2013-01-23 08:43:00,
2013-01-23 03:53:00,-0.5,-4.6,30.22,WSW,252,3.0,6.0,82,0.00, +SN, +SN,0.00,0.0,WeatherDisplay:10.37,2013-01-23 08:53:00,
2013-01-23 03:58:00,-0.6,-4.8,30.21,WSW,250,3.0,6.0,82,0.00, +SN, +SN,0.00,0.0,WeatherDisplay:10.37,2013-01-23 08:58:00,
2013-01-23 04:03:00,-0.6,-4.8,30.21,WSW,251,5.0,9.0,82,0.00, +SN, +SN,0.00,0.0,WeatherDisplay:10.37,2013-01-23 09:03:00,
2013-01-23 04:08:00,-0.6,-4.8,30.21,WSW,256,5.0,6.0,82,0.00, +SN, +SN,0.00,0.0,WeatherDisplay:10.37,2013-01-23 09:08:00,
2013-01-23 04:13:00,-0.4,-4.6,30.21,WSW,253,3.0,5.0,82,0.00, +SN, +SN,0.00,0.0,WeatherDisplay:10.37,2013-01-23 09:13:00,
2013-01-23 04:18:00,-0.4,-4.3,30.21,WSW,251,3.0,8.0,83,0.00, +SN, +SN,0.00,0.0,WeatherDisplay:10.37,2013-01-23 09:18:00,
2013-01-23 04:23:00,-0.4,-4.6,30.21,WSW,258,5.0,7.0,82,0.00, +SN, +SN,0.00,0.0,WeatherDisplay:10.37,2013-01-23 09:23:00,
2013-01-23 04:28:00,-0.4,-4.6,30.21,West,263,3.0,8.0,82,0.00, +SN, +SN,0.00,0.0,WeatherDisplay:10.37,2013-01-23 09:28:00,
2013-01-23 04:33:00,-0.4,-4.6,30.21,West,261,2.0,5.0,82,0.00, +SN, +SN,0.00,0.0,WeatherDisplay:10.37,2013-01-23 09:33:00,
2013-01-23 04:38:00,-0.6,-4.8,30.21,West,260,3.0,5.0,82,0.00, +SN, +SN,0.00,0.0,WeatherDisplay:10.37,2013-01-23 09:38:00,
2013-01-23 04:43:00,-0.6,-4.8,30.21,West,259,1.0,3.0,82,0.00, +SN, +SN,0.00,0.0,WeatherDisplay:10.37,2013-01-23 09:43:00,
2013-01-23 04:48:00,-0.8,-5.0,30.21,West,259,0.0,2.0,82,0.00, +SN, +SN,0.00,0.0,WeatherDisplay:10.37,2013-01-23 09:48:00,
2013-01-23 04:53:00,-0.8,-5.2,30.21,West,259,1.0,4.0,81,0.00, +SN, +SN,0.00,0.0,WeatherDisplay:10.37,2013-01-23 09:53:00,
2013-01-23 05:03:00,-1.2,-5.6,30.21,West,259,2.0,5.0,81,0.00, +SN, +SN,0.00,0.0,WeatherDisplay:10.37,2013-01-23 10:03:00,
2013-01-23 05:08:00,-1.4,-5.8,30.21,West,259,3.0,4.0,81,0.00, +SN, +SN,0.00,0.0,WeatherDisplay:10.37,2013-01-23 10:08:00,
2013-01-23 05:13:00,-1.4,-5.8,30.21,WSW,258,2.0,5.0,81,0.00, +SN, +SN,0.00,0.0,WeatherDisplay:10.37,2013-01-23 10:13:00,
2013-01-23 05:18:00,-1.6,-5.8,30.21,WSW,257,2.0,6.0,82,0.00, +SN, +SN,0.00,0.0,WeatherDisplay:10.37,2013-01-23 10:18:00,
2013-01-23 05:23:00,-1.6,-5.8,30.21,WSW,257,3.0,5.0,82,0.00, +SN, +SN,0.00,0.0,WeatherDisplay:10.37,2013-01-23 10:23:00,
2013-01-23 05:28:00,-1.6,-5.8,30.21,WSW,257,5.0,7.0,82,0.00, +SN, +SN,0.00,0.0,WeatherDisplay:10.37,2013-01-23 10:28:00,
2013-01-23 05:33:00,-1.6,-5.8,30.21,WSW,257,3.0,8.0,82,0.00, +SN, +SN,0.00,0.0,WeatherDisplay:10.37,2013-01-23 10:33:00,
2013-01-23 05:38:00,-1.6,-5.8,30.21,WSW,253,3.0,4.0,82,0.00, +SN, +SN,0.00,0.0,WeatherDisplay:10.37,2013-01-23 10:38:00,
2013-01-23 05:43:00,-1.6,-5.5,30.22,WSW,252,3.0,5.0,83,0.00, +SN, +SN,0.00,0.0,WeatherDisplay:10.37,2013-01-23 10:43:00,
2013-01-23 05:48:00,-1.6,-5.5,30.22,WSW,252,5.0,6.0,83,0.00, +SN, +SN,0.00,0.0,WeatherDisplay:10.37,2013-01-23 10:48:00,
2013-01-23 05:53:00,-1.6,-5.5,30.22,WSW,253,5.0,7.0,83,0.00, +SN, +SN,0.00,0.0,WeatherDisplay:10.37,2013-01-23 10:53:00,
2013-01-23 05:58:00,-1.6,-5.5,30.22,WSW,252,5.0,6.0,83,0.00, +SN, +SN,0.00,0.0,WeatherDisplay:10.37,2013-01-23 10:58:00,
2013-01-23 06:03:00,-1.4,-5.3,30.22,WSW,251,3.0,5.0,83,0.00, +SN, +SN,0.00,0.0,WeatherDisplay:10.37,2013-01-23 11:03:00,
2013-01-23 06:08:00,-1.4,-5.3,30.22,WSW,254,5.0,7.0,83,0.00, +SN, +SN,0.00,0.0,WeatherDisplay:10.37,2013-01-23 11:08:00,
2013-01-23 06:13:00,-1.4,-5.3,30.22,West,259,3.0,6.0,83,0.00, +SN, +SN,0.00,0.0,WeatherDisplay:10.37,2013-01-23 11:13:00,
2013-01-23 06:23:00,-1.4,-5.3,30.22,WSW,251,3.0,7.0,83,0.00, +SN, +SN,0.00,0.0,WeatherDisplay:10.37,2013-01-23 11:23:00,
2013-01-23 06:28:00,-1.4,-5.3,30.22,WSW,256,5.0,8.0,83,0.00, +SN, +SN,0.00,0.0,WeatherDisplay:10.37,2013-01-23 11:28:00,
2013-01-23 06:33:00,-1.4,-5.3,30.23,West,266,5.0,8.0,83,0.00, +SN, +SN,0.00,0.0,WeatherDisplay:10.37,2013-01-23 11:33:00,
2013-01-23 06:38:00,-1.4,-5.3,30.23,West,263,6.0,7.0,83,0.00, +SN, +SN,0.00,0.0,WeatherDisplay:10.37,2013-01-23 11:38:00,
2013-01-23 06:43:00,-1.2,-5.1,30.23,West,260,6.0,8.0,83,0.00, +SN, +SN,0.00,0.0,WeatherDisplay:10.37,2013-01-23 11:43:00,
2013-01-23 06:48:00,-1.2,-5.1,30.23,West,259,5.0,8.0,83,0.00, +SN, +SN,0.00,0.0,WeatherDisplay:10.37,2013-01-23 11:48:00,
2013-01-23 06:53:00,-1.2,-5.1,30.23,West,260,5.0,7.0,83,0.00, +SN, +SN,0.00,0.0,WeatherDisplay:10.37,2013-01-23 11:53:00,
2013-01-23 06:58:00,-1.2,-5.1,30.23,West,263,3.0,9.0,83,0.00, +SN, +SN,0.00,0.0,WeatherDisplay:10.37,2013-01-23 11:58:00,
2013-01-23 07:03:00,-1.2,-5.4,30.23,West,263,6.0,12.0,82,0.00, +SN, +SN,0.00,0.0,WeatherDisplay:10.37,2013-01-23 12:03:00,
2013-01-23 07:13:00,-1.1,-5.2,30.23,West,266,6.0,9.0,82,0.00, +SN, +SN,0.00,0.0,WeatherDisplay:10.37,2013-01-23 12:13:00,
2013-01-23 07:18:00,-1.0,-5.2,30.23,West,268,7.0,9.0,82,0.00, +SN, +SN,0.00,0.0,WeatherDisplay:10.37,2013-01-23 12:18:00,
2013-01-23 07:23:00,-1.0,-5.2,30.23,West,262,6.0,10.0,82,0.00, +SN, +SN,0.00,0.0,WeatherDisplay:10.37,2013-01-23 12:23:00,
2013-01-23 07:28:00,-1.0,-5.2,30.24,WSW,258,7.0,12.0,82,0.00, +SN, +SN,0.00,5.0,WeatherDisplay:10.37,2013-01-23 12:28:00,
2013-01-23 07:33:00,-1.0,-5.2,30.24,WSW,258,6.0,8.0,82,0.00, +SN, +SN,0.00,7.0,WeatherDisplay:10.37,2013-01-23 12:33:00,
2013-01-23 07:38:00,-1.0,-5.2,30.23,WSW,253,6.0,8.0,82,0.00, +SN, +SN,0.00,9.0,WeatherDisplay:10.37,2013-01-23 12:38:00,
2013-01-23 07:43:00,-1.0,-5.2,30.23,WSW,257,7.0,12.0,82,0.00, +SN, +SN,0.00,11.0,WeatherDisplay:10.37,2013-01-23 12:43:00,
2013-01-23 07:48:00,-1.0,-5.2,30.24,West,261,6.0,12.0,82,0.00, +SN, +SN,0.00,14.0,WeatherDisplay:10.37,2013-01-23 12:48:00,
2013-01-23 07:53:00,-1.0,-5.2,30.24,West,261,5.0,9.0,82,0.00, +SN, +SN,0.00,16.0,WeatherDisplay:10.37,2013-01-23 12:53:00,
2013-01-23 08:03:00,-1.0,-5.2,30.24,WSW,258,5.0,8.0,82,0.00, +SN, +SN,0.00,21.0,WeatherDisplay:10.37,2013-01-23 13:03:00,
2013-01-23 08:08:00,-1.0,-5.2,30.24,West,265,7.0,9.0,82,0.00, +SN, +SN,0.00,21.0,WeatherDisplay:10.37,2013-01-23 13:08:00,
2013-01-23 08:13:00,-1.0,-5.2,30.24,West,261,5.0,9.0,82,0.00, +SN, +SN,0.00,28.0,WeatherDisplay:10.37,2013-01-23 13:13:00,
2013-01-23 08:18:00,-0.8,-5.0,30.24,West,262,6.0,8.0,82,0.00, +SN, +SN,0.00,28.0,WeatherDisplay:10.37,2013-01-23 13:18:00,
2013-01-23 08:23:00,-0.8,-5.0,30.24,WSW,257,5.0,9.0,82,0.00, +SN, +SN,0.00,76.0,WeatherDisplay:10.37,2013-01-23 13:23:00,
2013-01-23 08:33:00,-0.6,-4.5,30.25,WSW,250,2.0,5.0,83,0.00, +SN, +SN,0.00,128.0,WeatherDisplay:10.37,2013-01-23 13:33:00,
2013-01-23 08:38:00,-0.6,-4.5,30.25,WSW,251,5.0,8.0,83,0.00, +SN, +SN,0.00,144.0,WeatherDisplay:10.37,2013-01-23 13:38:00,
2013-01-23 08:43:00,-0.4,-4.3,30.25,WSW,247,8.0,12.0,83,0.00, +SN, +SN,0.00,158.0,WeatherDisplay:10.37,2013-01-23 13:43:00,
2013-01-23 08:53:00,0.0,-3.9,30.25,WSW,239,3.0,7.0,83,0.00, +SN, +SN,0.00,185.0,WeatherDisplay:10.37,2013-01-23 13:53:00,
2013-01-23 08:58:00,0.1,-3.8,30.25,WSW,242,3.0,5.0,83,0.00, +SN, +SN,0.00,195.0,WeatherDisplay:10.37,2013-01-23 13:58:00,
2013-01-23 09:03:00,0.3,-3.6,30.25,WSW,244,5.0,9.0,83,0.00, +SN, +SN,0.00,206.0,WeatherDisplay:10.37,2013-01-23 14:03:00,
2013-01-23 09:13:00,0.7,-3.5,30.26,WSW,251,3.0,8.0,82,0.00, +SN, +SN,0.00,225.0,WeatherDisplay:10.37,2013-01-23 14:13:00,
2013-01-23 09:18:00,0.9,-3.3,30.26,West,264,6.0,10.0,82,0.00, +SN, +SN,0.00,237.0,WeatherDisplay:10.37,2013-01-23 14:18:00,
2013-01-23 09:23:00,1.2,-3.0,30.26,West,262,6.0,13.0,82,0.00, +SN, +SN,0.00,250.0,WeatherDisplay:10.37,2013-01-23 14:23:00,
2013-01-23 09:28:00,1.5,-3.0,30.26,West,260,7.0,12.0,81,0.00, +SN, +SN,0.00,264.0,WeatherDisplay:10.37,2013-01-23 14:28:00,
2013-01-23 09:33:00,1.7,-2.8,30.26,West,260,6.0,14.0,81,0.00, +SN, +SN,0.00,276.0,WeatherDisplay:10.37,2013-01-23 14:33:00,
2013-01-23 09:38:00,2.0,-2.8,30.26,WSW,258,6.0,8.0,80,0.00, +SN, +SN,0.00,283.0,WeatherDisplay:10.37,2013-01-23 14:38:00,
2013-01-23 09:43:00,2.2,-2.6,30.26,West,262,7.0,12.0,80,0.00, +SN, +SN,0.00,295.0,WeatherDisplay:10.37,2013-01-23 14:43:00,
2013-01-23 09:48:00,2.6,-2.4,30.27,West,274,6.0,12.0,79,0.00, +SN, +SN,0.00,313.0,WeatherDisplay:10.37,2013-01-23 14:48:00,
2013-01-23 09:53:00,2.8,-2.5,30.27,West,274,7.0,12.0,78,0.00, +SN, +SN,0.00,322.0,WeatherDisplay:10.37,2013-01-23 14:53:00,
2013-01-23 10:03:00,3.2,-2.7,30.27,WNW,294,5.0,10.0,76,0.00, +SN, +SN,0.00,343.0,WeatherDisplay:10.37,2013-01-23 15:03:00,
2013-01-23 10:08:00,3.4,-2.5,30.27,WNW,292,6.0,13.0,76,0.00, +SN, +SN,0.00,355.0,WeatherDisplay:10.37,2013-01-23 15:08:00,
2013-01-23 10:13:00,3.5,-2.6,30.27,WNW,286,5.0,12.0,75,0.00, +SN, +SN,0.00,366.0,WeatherDisplay:10.37,2013-01-23 15:13:00,
2013-01-23 10:23:00,4.1,-2.6,30.27,WNW,286,6.0,10.0,73,0.00, +SN, +SN,0.00,399.0,WeatherDisplay:10.37,2013-01-23 15:23:00,
2013-01-23 10:28:00,4.8,-2.3,30.27,WNW,290,8.0,14.0,72,0.00, +SN, +SN,0.00,436.0,WeatherDisplay:10.37,2013-01-23 15:28:00,
2013-01-23 10:33:00,5.2,-3.1,30.27,WNW,285,7.0,12.0,68,0.00, +SN, +SN,0.00,422.0,WeatherDisplay:10.37,2013-01-23 15:33:00,
2013-01-23 10:38:00,5.6,-3.4,30.27,West,275,7.0,14.0,66,0.00, +SN, +SN,0.00,408.0,WeatherDisplay:10.37,2013-01-23 15:38:00,
2013-01-23 10:43:00,5.8,-3.8,30.27,West,280,8.0,15.0,64,0.00, +SN, +SN,0.00,452.0,WeatherDisplay:10.37,2013-01-23 15:43:00,
2013-01-23 10:48:00,6.1,-3.8,30.27,WNW,302,6.0,12.0,63,0.00, +SN, +SN,0.00,531.0,WeatherDisplay:10.37,2013-01-23 15:48:00,
2013-01-23 10:53:00,6.3,-4.0,30.26,WNW,282,6.0,13.0,62,0.00, +SN, +SN,0.00,508.0,WeatherDisplay:10.37,2013-01-23 15:53:00,
2013-01-23 10:58:00,6.5,-4.5,30.26,WNW,301,6.0,15.0,60,0.00, +SN, +SN,0.00,475.0,WeatherDisplay:10.37,2013-01-23 15:58:00,
2013-01-23 11:03:00,6.5,-4.1,30.26,NW,312,7.0,14.0,61,0.00, +SN, +SN,0.00,494.0,WeatherDisplay:10.37,2013-01-23 16:03:00,
2013-01-23 11:08:00,6.6,-4.7,30.26,WNW,286,8.0,13.0,59,0.00, +SN, +SN,0.00,165.0,WeatherDisplay:10.37,2013-01-23 16:08:00,
2013-01-23 11:13:00,6.3,-4.6,30.26,West,269,9.0,16.0,60,0.00, +SN, +SN,0.00,93.0,WeatherDisplay:10.37,2013-01-23 16:13:00,
2013-01-23 11:18:00,6.3,-4.7,30.26,West,274,8.0,12.0,60,0.00, +SN, +SN,0.00,118.0,WeatherDisplay:10.37,2013-01-23 16:18:00,
2013-01-23 11:23:00,6.1,-4.8,30.25,WNW,288,8.0,12.0,60,0.00, +SN, +SN,0.00,504.0,WeatherDisplay:10.37,2013-01-23 16:23:00,
2013-01-23 11:33:00,6.9,-4.8,30.25,WNW,293,5.0,12.0,58,0.00, +SN, +SN,0.00,193.0,WeatherDisplay:10.37,2013-01-23 16:33:00,
2013-01-23 11:38:00,7.0,-5.1,30.25,NW,316,7.0,12.0,57,0.00, +SN, +SN,0.00,176.0,WeatherDisplay:10.37,2013-01-23 16:38:00,
2013-01-23 11:43:00,7.7,-5.1,30.25,NW,309,6.0,13.0,55,0.00, +SN, +SN,0.00,612.0,WeatherDisplay:10.37,2013-01-23 16:43:00,
2013-01-23 11:48:00,7.9,-5.3,30.24,WNW,300,7.0,12.0,54,0.00, +SN, +SN,0.00,608.0,WeatherDisplay:10.37,2013-01-23 16:48:00,
2013-01-23 11:53:00,8.1,-4.8,30.24,West,280,10.0,18.0,55,0.00, +SN, +SN,0.00,603.0,WeatherDisplay:10.37,2013-01-23 16:53:00,
2013-01-23 11:58:00,8.0,-4.9,30.24,West,261,9.0,18.0,55,0.00, +SN, +SN,0.00,543.0,WeatherDisplay:10.37,2013-01-23 16:58:00,
2013-01-23 12:03:00,8.1,-4.8,30.24,West,261,13.0,20.0,55,0.00, +SN, +SN,0.00,610.0,WeatherDisplay:10.37,2013-01-23 17:03:00,
2013-01-23 12:08:00,8.4,-4.9,30.23,West,269,8.0,12.0,54,0.00, +SN, +SN,0.00,538.0,WeatherDisplay:10.37,2013-01-23 17:08:00,
2013-01-23 12:18:00,8.6,-4.3,30.23,West,267,6.0,14.0,55,0.00, +SN, +SN,0.00,555.0,WeatherDisplay:10.37,2013-01-23 17:18:00,
2013-01-23 12:23:00,8.8,-4.1,30.23,West,271,7.0,13.0,55,0.00, +SN, +SN,0.00,466.0,WeatherDisplay:10.37,2013-01-23 17:23:00,
2013-01-23 12:28:00,9.3,-4.8,30.22,WNW,294,5.0,12.0,52,0.00, +SN, +SN,0.00,478.0,WeatherDisplay:10.37,2013-01-23 17:28:00,
2013-01-23 12:33:00,9.2,-5.3,30.22,NW,326,6.0,12.0,51,0.00, +SN, +SN,0.00,527.0,WeatherDisplay:10.37,2013-01-23 17:33:00,
2013-01-23 12:38:00,9.5,-5.0,30.22,NNW,327,7.0,12.0,51,0.00, +SN, +SN,0.00,396.0,WeatherDisplay:10.37,2013-01-23 17:38:00,
2013-01-23 12:43:00,8.8,-5.3,30.22,WNW,288,6.0,9.0,52,0.00, +SN, +SN,0.00,200.0,WeatherDisplay:10.37,2013-01-23 17:43:00,
2013-01-23 12:48:00,8.3,-5.7,30.22,West,273,7.0,13.0,52,0.00, +SN, +SN,0.00,199.0,WeatherDisplay:10.37,2013-01-23 17:48:00,
2013-01-23 12:53:00,8.1,-5.9,30.22,WNW,303,7.0,13.0,52,0.00, +SN, +SN,0.00,225.0,WeatherDisplay:10.37,2013-01-23 17:53:00,
2013-01-23 12:58:00,7.9,-6.5,30.22,NNW,327,7.0,13.0,51,0.00, +SN, +SN,0.00,204.0,WeatherDisplay:10.37,2013-01-23 17:58:00,
2013-01-23 13:03:00,8.1,-5.9,30.22,NNW,331,8.0,12.0,52,0.00, +SN, +SN,0.00,241.0,WeatherDisplay:10.37,2013-01-23 18:03:00,
2013-01-23 13:13:00,7.9,-6.1,30.21,NNW,334,8.0,12.0,52,0.00, +SN, +SN,0.00,172.0,WeatherDisplay:10.37,2013-01-23 18:13:00,
2013-01-23 13:23:00,7.9,-6.1,30.21,NW,314,3.0,6.0,52,0.00, +SN, +SN,0.00,91.0,WeatherDisplay:10.37,2013-01-23 18:23:00,
2013-01-23 13:28:00,7.7,-6.7,30.21,NW,307,3.0,12.0,51,0.00, +SN, +SN,0.00,98.0,WeatherDisplay:10.37,2013-01-23 18:28:00,
2013-01-23 13:33:00,7.6,-6.8,30.21,NW,306,3.0,8.0,51,0.00, +SN, +SN,0.00,148.0,WeatherDisplay:10.37,2013-01-23 18:33:00,
2013-01-23 13:38:00,7.6,-6.4,30.21,NNW,331,3.0,7.0,52,0.00, +SN, +SN,0.00,162.0,WeatherDisplay:10.37,2013-01-23 18:38:00,
2013-01-23 13:48:00,7.7,-6.3,30.21,WNW,287,3.0,10.0,52,0.00, +SN, +SN,0.00,188.0,WeatherDisplay:10.37,2013-01-23 18:48:00,
2013-01-23 13:53:00,7.9,-6.5,30.21,WNW,290,3.0,9.0,51,0.00, +SN, +SN,0.00,163.0,WeatherDisplay:10.37,2013-01-23 18:53:00,
2013-01-23 13:58:00,8.1,-6.3,30.21,NW,307,2.0,9.0,51,0.00, +SN, +SN,0.00,139.0,WeatherDisplay:10.37,2013-01-23 18:58:00,
2013-01-23 14:03:00,8.3,-6.1,30.20,NW,313,3.0,8.0,51,0.00, +SN, +SN,0.00,144.0,WeatherDisplay:10.37,2013-01-23 19:03:00,
2013-01-23 14:08:00,8.4,-5.7,30.21,NNW,330,3.0,9.0,52,0.00, +SN, +SN,0.00,179.0,WeatherDisplay:10.37,2013-01-23 19:08:00,
2013-01-23 14:13:00,8.4,-5.2,30.21,NW,321,3.0,10.0,53,0.00, +SN, +SN,0.00,181.0,WeatherDisplay:10.37,2013-01-23 19:13:00,
2013-01-23 14:18:00,8.3,-5.3,30.21,NW,313,3.0,8.0,53,0.00, +SN, +SN,0.00,202.0,WeatherDisplay:10.37,2013-01-23 19:18:00,
2013-01-23 14:23:00,8.3,-5.3,30.21,WNW,286,5.0,8.0,53,0.00, +SN, +SN,0.00,211.0,WeatherDisplay:10.37,2013-01-23 19:23:00,
2013-01-23 14:28:00,8.8,-5.7,30.21,WNW,284,6.0,12.0,51,0.00, +SN, +SN,0.00,199.0,WeatherDisplay:10.37,2013-01-23 19:28:00,
2013-01-23 14:33:00,8.8,-5.7,30.21,West,263,7.0,12.0,51,0.00, +SN, +SN,0.00,179.0,WeatherDisplay:10.37,2013-01-23 19:33:00,
2013-01-23 14:38:00,8.6,-5.5,30.21,West,261,7.0,12.0,52,0.00, +SN, +SN,0.00,169.0,WeatherDisplay:10.37,2013-01-23 19:38:00,
2013-01-23 14:43:00,8.4,-5.6,30.21,West,266,7.0,13.0,52,0.00, +SN, +SN,0.00,142.0,WeatherDisplay:10.37,2013-01-23 19:43:00,
2013-01-23 14:48:00,8.2,-5.1,30.21,West,272,5.0,13.0,54,0.00, +SN, +SN,0.00,120.0,WeatherDisplay:10.37,2013-01-23 19:48:00,
2013-01-23 14:53:00,8.1,-5.5,30.22,WNW,297,5.0,8.0,53,0.00, +SN, +SN,0.00,120.0,WeatherDisplay:10.37,2013-01-23 19:53:00,
2013-01-23 14:58:00,8.1,-6.3,30.21,NW,307,5.0,12.0,51,0.00, +SN, +SN,0.00,141.0,WeatherDisplay:10.37,2013-01-23 19:58:00,
2013-01-23 15:03:00,8.3,-5.7,30.22,WNW,295,6.0,12.0,52,0.00, +SN, +SN,0.00,125.0,WeatherDisplay:10.37,2013-01-23 20:03:00,
2013-01-23 15:08:00,8.3,-5.3,30.22,WNW,294,7.0,12.0,53,0.00, +SN, +SN,0.00,100.0,WeatherDisplay:10.37,2013-01-23 20:08:00,
2013-01-23 15:13:00,8.3,-5.0,30.22,NW,314,5.0,12.0,54,0.00, +SN, +SN,0.00,98.0,WeatherDisplay:10.37,2013-01-23 20:13:00,
2013-01-23 15:18:00,8.1,-4.7,30.21,NW,311,2.0,10.0,55,0.00, +SN, +SN,0.00,121.0,WeatherDisplay:10.37,2013-01-23 20:18:00,
2013-01-23 15:23:00,8.1,-4.8,30.21,WNW,297,2.0,6.0,55,0.00, +SN, +SN,0.00,120.0,WeatherDisplay:10.37,2013-01-23 20:23:00,
2013-01-23 15:28:00,8.3,-4.2,30.21,NW,310,2.0,5.0,56,0.00, +SN, +SN,0.00,153.0,WeatherDisplay:10.37,2013-01-23 20:28:00,
2013-01-23 15:33:00,8.4,-3.7,30.21,NNW,346,3.0,7.0,57,0.00, +SN, +SN,0.00,142.0,WeatherDisplay:10.37,2013-01-23 20:33:00,
2013-01-23 15:38:00,8.6,-3.2,30.21,North,353,2.0,4.0,58,0.00, +SN, +SN,0.00,127.0,WeatherDisplay:10.37,2013-01-23 20:38:00,
2013-01-23 15:43:00,8.6,-3.5,30.21,NNW,336,0.0,5.0,57,0.00, +SN, +SN,0.00,125.0,WeatherDisplay:10.37,2013-01-23 20:43:00,
2013-01-23 15:48:00,8.6,-3.9,30.21,NW,325,5.0,9.0,56,0.00, +SN, +SN,0.00,128.0,WeatherDisplay:10.37,2013-01-23 20:48:00,
2013-01-23 15:53:00,8.4,-4.5,30.21,NNW,337,3.0,8.0,55,0.00, +SN, +SN,0.00,127.0,WeatherDisplay:10.37,2013-01-23 20:53:00,
2013-01-23 15:58:00,8.4,-4.1,30.21,NNW,339,3.0,7.0,56,0.00, +SN, +SN,0.00,105.0,WeatherDisplay:10.37,2013-01-23 20:58:00,
2013-01-23 16:03:00,8.3,-3.1,30.21,NNW,327,3.0,6.0,59,0.00, +SN, +SN,0.00,91.0,WeatherDisplay:10.37,2013-01-23 21:03:00,
2013-01-23 16:08:00,8.1,-2.9,30.20,NW,324,3.0,6.0,60,0.00, +SN, +SN,0.00,91.0,WeatherDisplay:10.37,2013-01-23 21:08:00,
2013-01-23 16:13:00,8.1,-2.6,30.21,NW,325,2.0,5.0,61,0.00, +SN, +SN,0.00,91.0,WeatherDisplay:10.37,2013-01-23 21:13:00,
2013-01-23 16:18:00,7.9,-3.1,30.21,NW,324,2.0,5.0,60,0.00, +SN, +SN,0.00,74.0,WeatherDisplay:10.37,2013-01-23 21:18:00,
2013-01-23 16:23:00,7.9,-3.1,30.21,NW,324,1.0,3.0,60,0.00, +SN, +SN,0.00,62.0,WeatherDisplay:10.37,2013-01-23 21:23:00,
2013-01-23 16:28:00,7.9,-2.8,30.21,NW,324,2.0,3.0,61,0.00, +SN, +SN,0.00,54.0,WeatherDisplay:10.37,2013-01-23 21:28:00,
2013-01-23 16:38:00,7.9,-2.8,30.21,NW,324,2.0,3.0,61,0.00, +SN, +SN,0.00,35.0,WeatherDisplay:10.37,2013-01-23 21:38:00,
2013-01-23 16:43:00,7.9,-2.8,30.21,NW,324,2.0,5.0,61,0.00, +SN, +SN,0.00,33.0,WeatherDisplay:10.37,2013-01-23 21:43:00,
2013-01-23 16:48:00,7.9,-2.4,30.21,NW,324,0.0,3.0,62,0.00, +SN, +SN,0.00,28.0,WeatherDisplay:10.37,2013-01-23 21:48:00,
2013-01-23 16:53:00,7.7,-2.6,30.21,NW,324,2.0,3.0,62,0.00, +SN, +SN,0.00,23.0,WeatherDisplay:10.37,2013-01-23 21:53:00,
2013-01-23 16:58:00,7.7,-2.3,30.21,NW,324,1.0,3.0,63,0.00, +SN, +SN,0.00,18.0,WeatherDisplay:10.37,2013-01-23 21:58:00,
2013-01-23 17:03:00,7.6,-2.4,30.21,NW,324,0.0,1.0,63,0.00, +SN, +SN,0.00,14.0,WeatherDisplay:10.37,2013-01-23 22:03:00,
2013-01-23 17:08:00,7.6,-2.4,30.21,NW,324,0.0,0.0,63,0.00, +SN, +SN,0.00,7.0,WeatherDisplay:10.37,2013-01-23 22:08:00,
2013-01-23 17:13:00,7.4,-2.2,30.22,NW,324,0.0,2.0,64,0.00, +SN, +SN,0.00,0.0,WeatherDisplay:10.37,2013-01-23 22:13:00,
2013-01-23 17:18:00,7.2,-2.8,30.21,NW,324,0.0,2.0,63,0.00, +SN, +SN,0.00,0.0,WeatherDisplay:10.37,2013-01-23 22:18:00,
2013-01-23 17:23:00,7.2,-2.8,30.21,NW,324,0.0,0.0,63,0.00, +SN, +SN,0.00,0.0,WeatherDisplay:10.37,2013-01-23 22:23:00,
2013-01-23 17:28:00,7.0,-3.0,30.21,NW,324,0.0,0.0,63,0.00, +SN, +SN,0.00,0.0,WeatherDisplay:10.37,2013-01-23 22:28:00,
2013-01-23 17:33:00,6.9,-3.1,30.22,NW,324,0.0,1.0,63,0.00, +SN, +SN,0.00,0.0,WeatherDisplay:10.37,2013-01-23 22:33:00,
2013-01-23 17:38:00,6.7,-3.2,30.21,NW,324,0.0,0.0,63,0.00, +SN, +SN,0.00,0.0,WeatherDisplay:10.37,2013-01-23 22:38:00,
2013-01-23 17:43:00,6.5,-3.4,30.21,NW,324,0.0,0.0,63,0.00, +SN, +SN,0.00,0.0,WeatherDisplay:10.37,2013-01-23 22:43:00,
2013-01-23 17:48:00,6.3,-3.3,30.21,NW,324,0.0,0.0,64,0.00, +SN, +SN,0.00,0.0,WeatherDisplay:10.37,2013-01-23 22:48:00,
2013-01-23 17:53:00,6.0,-3.6,30.21,NW,324,0.0,0.0,64,0.00, +SN, +SN,0.00,0.0,WeatherDisplay:10.37,2013-01-23 22:53:00,
2013-01-23 17:58:00,5.8,-3.8,30.22,NW,324,0.0,0.0,64,0.00, +SN, +SN,0.00,0.0,WeatherDisplay:10.37,2013-01-23 22:58:00,
2013-01-23 18:03:00,5.6,-3.6,30.22,NW,324,0.0,0.0,65,0.00, +SN, +SN,0.00,0.0,WeatherDisplay:10.37,2013-01-23 23:03:00,
2013-01-23 18:08:00,5.4,-3.8,30.22,NW,324,1.0,2.0,65,0.00, +SN, +SN,0.00,0.0,WeatherDisplay:10.37,2013-01-23 23:08:00,
2013-01-23 18:13:00,5.2,-3.7,30.21,NW,324,0.0,1.0,66,0.00, +SN, +SN,0.00,0.0,WeatherDisplay:10.37,2013-01-23 23:13:00,
2013-01-23 18:23:00,4.8,-3.5,30.21,NW,324,0.0,0.0,68,0.00, +SN, +SN,0.00,0.0,WeatherDisplay:10.37,2013-01-23 23:23:00,
2013-01-23 18:28:00,4.7,-3.6,30.21,NW,324,0.0,0.0,68,0.00, +SN, +SN,0.00,0.0,WeatherDisplay:10.37,2013-01-23 23:28:00,
2013-01-23 18:33:00,4.7,-3.2,30.21,NW,324,0.0,0.0,69,0.00, +SN, +SN,0.00,0.0,WeatherDisplay:10.37,2013-01-23 23:33:00,
2013-01-23 18:38:00,4.5,-3.4,30.21,NW,324,0.0,0.0,69,0.00, +SN, +SN,0.00,0.0,WeatherDisplay:10.37,2013-01-23 23:38:00,
2013-01-23 18:43:00,4.3,-3.6,30.20,NW,324,0.0,0.0,69,0.00, +SN, +SN,0.00,0.0,WeatherDisplay:10.37,2013-01-23 23:43:00,
2013-01-23 18:48:00,4.3,-3.3,30.20,NW,324,0.0,0.0,70,0.00, +SN, +SN,0.00,0.0,WeatherDisplay:10.37,2013-01-23 23:48:00,
2013-01-23 18:53:00,4.1,-3.2,30.21,NW,324,0.0,0.0,71,0.00, +SN, +SN,0.00,0.0,WeatherDisplay:10.37,2013-01-23 23:53:00,
2013-01-23 18:58:00,3.9,-3.4,30.21,NW,324,0.0,0.0,71,0.00, +SN, +SN,0.00,0.0,WeatherDisplay:10.37,2013-01-23 23:58:00,
2013-01-23 19:03:00,3.6,-3.4,30.20,NW,324,0.0,0.0,72,0.00, +SN, +SN,0.00,0.0,WeatherDisplay:10.37,2013-01-24 00:03:00,
2013-01-23 19:08:00,3.5,-3.6,30.20,NW,324,0.0,0.0,72,0.00, +SN, +SN,0.00,0.0,WeatherDisplay:10.37,2013-01-24 00:08:00,
2013-01-23 19:13:00,3.2,-3.5,30.20,NW,324,0.0,0.0,73,0.00, +SN, +SN,0.00,0.0,WeatherDisplay:10.37,2013-01-24 00:13:00,
2013-01-23 19:18:00,3.0,-3.4,30.20,NW,324,0.0,0.0,74,0.00, +SN, +SN,0.00,0.0,WeatherDisplay:10.37,2013-01-24 00:18:00,
2013-01-23 19:23:00,2.8,-3.6,30.20,NW,324,0.0,0.0,74,0.00, +SN, +SN,0.00,0.0,WeatherDisplay:10.37,2013-01-24 00:23:00,
2013-01-23 19:28:00,2.6,-3.5,30.20,NW,324,0.0,1.0,75,0.00, +SN, +SN,0.00,0.0,WeatherDisplay:10.37,2013-01-24 00:28:00,
2013-01-23 19:33:00,2.6,-3.5,30.20,NW,324,1.0,2.0,75,0.00, +SN, +SN,0.00,0.0,WeatherDisplay:10.37,2013-01-24 00:33:00,
2013-01-23 19:38:00,2.4,-3.7,30.19,NW,324,0.0,0.0,75,0.00, +SN, +SN,0.00,0.0,WeatherDisplay:10.37,2013-01-24 00:38:00,
2013-01-23 19:43:00,2.3,-3.6,30.20,NW,324,0.0,0.0,76,0.00, +SN, +SN,0.00,0.0,WeatherDisplay:10.37,2013-01-24 00:43:00,
2013-01-23 19:53:00,2.0,-3.8,30.20,NW,324,0.0,0.0,76,0.00, +SN, +SN,0.00,0.0,WeatherDisplay:10.37,2013-01-24 00:53:00,
2013-01-23 19:58:00,2.0,-3.6,30.19,NW,324,0.0,1.0,77,0.00, +SN, +SN,0.00,0.0,WeatherDisplay:10.37,2013-01-24 00:58:00,
2013-01-23 20:03:00,1.9,-3.7,30.19,NW,324,0.0,0.0,77,0.00, +SN, +SN,0.00,0.0,WeatherDisplay:10.37,2013-01-24 01:03:00,
2013-01-23 20:08:00,1.8,-3.7,30.19,NW,324,0.0,0.0,77,0.00, +SN, +SN,0.00,0.0,WeatherDisplay:10.37,2013-01-24 01:08:00,
2013-01-23 20:13:00,1.8,-3.7,30.20,NW,324,0.0,0.0,77,0.00, +SN, +SN,0.00,0.0,WeatherDisplay:10.37,2013-01-24 01:13:00,
2013-01-23 20:23:00,1.7,-3.6,30.19,NW,324,1.0,2.0,78,0.00, +SN, +SN,0.00,0.0,WeatherDisplay:10.37,2013-01-24 01:23:00,
2013-01-23 20:28:00,1.5,-3.5,30.19,NW,324,0.0,1.0,79,0.00, +SN, +SN,0.00,0.0,WeatherDisplay:10.37,2013-01-24 01:28:00,
2013-01-23 20:33:00,1.5,-3.5,30.19,NW,324,0.0,1.0,79,0.00, +SN, +SN,0.00,0.0,WeatherDisplay:10.37,2013-01-24 01:33:00,
2013-01-23 20:38:00,1.5,-3.2,30.19,NW,324,0.0,0.0,80,0.00, +SN, +SN,0.00,0.0,WeatherDisplay:10.37,2013-01-24 01:38:00,
2013-01-23 20:43:00,1.5,-3.2,30.19,NW,324,0.0,0.0,80,0.00, +SN, +SN,0.00,0.0,WeatherDisplay:10.37,2013-01-24 01:43:00,
2013-01-23 20:48:00,1.4,-3.0,30.19,NW,324,0.0,0.0,81,0.00, +SN, +SN,0.00,0.0,WeatherDisplay:10.37,2013-01-24 01:48:00,
2013-01-23 21:03:00,1.3,-2.9,30.19,NW,324,0.0,0.0,82,0.00, +SN, +SN,0.00,0.0,WeatherDisplay:10.37,2013-01-24 02:03:00,
2013-01-23 21:08:00,1.3,-2.9,30.18,NW,324,0.0,0.0,82,0.00, +SN, +SN,0.00,0.0,WeatherDisplay:10.37,2013-01-24 02:08:00,
2013-01-23 21:13:00,1.3,-2.7,30.19,NW,324,0.0,0.0,83,0.00, +SN, +SN,0.00,0.0,WeatherDisplay:10.37,2013-01-24 02:13:00,
2013-01-23 21:18:00,1.3,-2.7,30.19,NW,324,0.0,0.0,83,0.00, +SN, +SN,0.00,0.0,WeatherDisplay:10.37,2013-01-24 02:18:00,
2013-01-23 21:23:00,1.3,-2.7,30.19,NW,324,0.0,1.0,83,0.00, +SN, +SN,0.00,0.0,WeatherDisplay:10.37,2013-01-24 02:23:00,
2013-01-23 21:28:00,1.3,-2.7,30.19,NW,324,0.0,1.0,83,0.00, +SN, +SN,0.00,0.0,WeatherDisplay:10.37,2013-01-24 02:28:00,
2013-01-23 21:33:00,1.3,-2.4,30.18,NW,324,0.0,1.0,84,0.00, +SN, +SN,0.00,0.0,WeatherDisplay:10.37,2013-01-24 02:33:00,
2013-01-23 21:38:00,1.5,-2.2,30.19,NW,324,1.0,2.0,84,0.00, +SN, +SN,0.00,0.0,WeatherDisplay:10.37,2013-01-24 02:38:00,
2013-01-23 21:43:00,1.5,-2.2,30.18,NW,324,0.0,2.0,84,0.00, +SN, +SN,0.00,0.0,WeatherDisplay:10.37,2013-01-24 02:43:00,
2013-01-23 21:53:00,1.5,-2.2,30.19,NW,324,0.0,1.0,84,0.00, +SN, +SN,0.00,0.0,WeatherDisplay:10.37,2013-01-24 02:53:00,
2013-01-23 21:58:00,1.5,-2.2,30.18,NW,324,0.0,2.0,84,0.00, +SN, +SN,0.00,0.0,WeatherDisplay:10.37,2013-01-24 02:58:00,
2013-01-23 22:03:00,1.5,-2.2,30.19,NW,324,1.0,2.0,84,0.00, +SN, +SN,0.00,0.0,WeatherDisplay:10.37,2013-01-24 03:03:00,
2013-01-23 22:08:00,1.5,-2.0,30.18,NW,323,1.0,2.0,85,0.00, +SN, +SN,0.00,0.0,WeatherDisplay:10.37,2013-01-24 03:08:00,
2013-01-23 22:13:00,1.5,-2.0,30.18,NW,323,1.0,2.0,85,0.00, +SN, +SN,0.00,0.0,WeatherDisplay:10.37,2013-01-24 03:13:00,
2013-01-23 22:18:00,1.5,-2.0,30.18,NW,323,0.0,3.0,85,0.00, +SN, +SN,0.00,0.0,WeatherDisplay:10.37,2013-01-24 03:18:00,
2013-01-23 22:23:00,1.5,-2.0,30.18,NW,323,1.0,2.0,85,0.00, +SN, +SN,0.00,0.0,WeatherDisplay:10.37,2013-01-24 03:23:00,
2013-01-23 22:28:00,1.5,-2.0,30.18,NW,323,1.0,3.0,85,0.00, +SN, +SN,0.00,0.0,WeatherDisplay:10.37,2013-01-24 03:28:00,
2013-01-23 22:33:00,1.5,-2.0,30.18,NW,323,0.0,1.0,85,0.00, +SN, +SN,0.00,0.0,WeatherDisplay:10.37,2013-01-24 03:33:00,
2013-01-23 22:38:00,1.5,-2.0,30.18,NW,323,0.0,2.0,85,0.00, +SN, +SN,0.00,0.0,WeatherDisplay:10.37,2013-01-24 03:38:00,
2013-01-23 22:43:00,1.5,-2.0,30.18,NW,323,0.0,2.0,85,0.00, +SN, +SN,0.00,0.0,WeatherDisplay:10.37,2013-01-24 03:43:00,
2013-01-23 22:48:00,1.3,-2.2,30.18,NW,323,0.0,2.0,85,0.00, +SN, +SN,0.00,0.0,WeatherDisplay:10.37,2013-01-24 03:48:00,
2013-01-23 22:53:00,1.3,-2.2,30.18,NW,323,0.0,2.0,85,0.00, +SN, +SN,0.00,0.0,WeatherDisplay:10.37,2013-01-24 03:53:00,
2013-01-23 22:58:00,1.3,-2.2,30.18,NW,323,0.0,1.0,85,0.00, +SN, +SN,0.00,0.0,WeatherDisplay:10.37,2013-01-24 03:58:00,
2013-01-23 23:03:00,1.3,-2.2,30.18,NW,323,0.0,1.0,85,0.00, +SN, +SN,0.00,0.0,WeatherDisplay:10.37,2013-01-24 04:03:00,
2013-01-23 23:08:00,1.3,-2.2,30.18,NW,323,0.0,0.0,85,0.00, +SN, +SN,0.00,0.0,WeatherDisplay:10.37,2013-01-24 04:08:00,
2013-01-23 23:13:00,1.3,-2.2,30.18,NW,323,0.0,2.0,85,0.00, +SN, +SN,0.00,0.0,WeatherDisplay:10.37,2013-01-24 04:13:00,
2013-01-23 23:18:00,1.3,-2.2,30.18,NW,323,0.0,1.0,85,0.00, +SN, +SN,0.00,0.0,WeatherDisplay:10.37,2013-01-24 04:18:00,
2013-01-23 23:23:00,1.1,-2.4,30.18,NW,323,0.0,1.0,85,0.00, +SN, +SN,0.00,0.0,WeatherDisplay:10.37,2013-01-24 04:23:00,
2013-01-23 23:28:00,1.1,-2.4,30.18,NW,323,0.0,2.0,85,0.00, +SN, +SN,0.00,0.0,WeatherDisplay:10.37,2013-01-24 04:28:00,
2013-01-23 23:33:00,1.1,-2.1,30.18,NW,323,0.0,2.0,86,0.00, +SN, +SN,0.00,0.0,WeatherDisplay:10.37,2013-01-24 04:33:00,
2013-01-23 23:38:00,1.1,-2.1,30.18,NW,323,1.0,2.0,86,0.00, +SN, +SN,0.00,0.0,WeatherDisplay:10.37,2013-01-24 04:38:00,
2013-01-23 23:43:00,1.3,-1.9,30.18,NW,323,0.0,2.0,86,0.00, +SN, +SN,0.00,0.0,WeatherDisplay:10.37,2013-01-24 04:43:00,
2013-01-23 23:48:00,1.3,-1.9,30.18,NW,323,0.0,2.0,86,0.00, +SN, +SN,0.00,0.0,WeatherDisplay:10.37,2013-01-24 04:48:00,
2013-01-23 23:53:00,1.3,-1.9,30.17,NW,323,0.0,1.0,86,0.00, +SN, +SN,0.00,0.0,WeatherDisplay:10.37,2013-01-24 04:53:00,
2013-01-23 23:58:00,1.3,-1.9,30.18,NW,323,0.0,2.0,86,0.00, +SN, +SN,0.00,0.0,WeatherDisplay:10.37,2013-01-24 04:58:00,